PST,Max TemperatureF,Mean TemperatureF,Min TemperatureF,Max Dew PointF,MeanDew PointF,Min DewpointF,Max Humidity, Mean Humidity, Min Humidity, Max Sea Level PressureIn, Mean Sea Level PressureIn, Min Sea Level PressureIn, Max VisibilityMiles, Mean VisibilityMiles, Min VisibilityMiles, Max Wind SpeedMPH, Mean Wind SpeedMPH, Max Gust SpeedMPH,PrecipitationIn, CloudCover, Events, WindDirDegrees
2013-1-1,31,30,29,25,24,20,85,77,69,30.63,30.59,30.50,10,10,10,8,2,9,0.00,8,,111
2013-1-2,33,29,24,21,18,15,75,65,54,30.62,30.57,30.50,10,10,10,14,6,17,0.00,4,,149
2013-1-3,34,27,19,19,16,14,81,64,47,30.50,30.43,30.36,10,10,10,17,3,21,0.00,1,,186
2013-1-4,41,31,21,25,20,14,84,64,43,30.45,30.40,30.34,10,10,10,20,10,25,0.00,7,,122
2013-1-5,39,35,30,24,19,14,78,59,40,30.39,30.32,30.25,10,10,10,22,7,26,0.00,3,,161
2013-1-6,39,35,30,28,25,23,78,69,59,30.24,30.19,30.13,10,10,10,22,4,26,0.00,7,,77
2013-1-7,45,38,30,32,28,22,82,67,52,30.10,30.00,29.92,10,8,1,31,15,40,0.05,6,Snow,172
2013-1-8,50,44,38,37,34,31,86,71,56,30.17,30.07,29.97,10,10,10,25,12,33,0.01,6,Rain,173
2013-1-9,51,45,39,41,36,29,89,73,56,29.97,29.82,29.69,10,10,10,23,7,31,0.02,7,Rain,201
2013-1-10,40,36,31,33,25,15,89,68,47,29.93,29.87,29.83,10,10,9,20,7,25,T,8,,282
2013-1-11,34,28,22,25,21,17,84,69,53,30.32,30.15,29.94,10,9,2,14,4,45,0.01,6,Snow,318
2013-1-12,26,21,16,21,18,13,92,80,68,30.39,30.32,30.26,10,9,1,29,2,30,0.01,7,Snow,164
2013-1-13,28,25,22,21,18,16,92,80,68,30.50,30.42,30.32,10,9,2,7,2,10,T,8,Snow,166
2013-1-14,28,25,22,23,20,17,92,84,75,30.54,30.44,30.36,10,6,1,10,5,39,0.09,8,Snow,80
2013-1-15,34,28,21,23,20,15,88,76,63,30.68,30.62,30.51,10,10,10,9,3,,0.00,2,,131
2013-1-16,35,26,17,24,19,14,100,79,58,30.69,30.62,30.58,10,5,0,16,2,,0.00,2,Fog,78
2013-1-17,38,33,27,22,18,15,61,55,48,30.62,30.53,30.42,10,10,10,23,12,28,0.00,0,,146
2013-1-18,40,35,29,22,19,16,63,55,47,30.42,30.36,30.30,10,10,10,22,6,29,0.00,0,,151
2013-1-19,41,34,26,22,19,17,75,58,40,30.49,30.44,30.40,10,10,10,21,8,24,0.00,0,,133
2013-1-20,38,30,21,24,22,19,88,71,54,30.56,30.51,30.45,10,10,9,9,3,12,0.00,0,,73
2013-1-21,34,27,19,23,20,16,92,77,61,30.45,30.38,30.30,10,5,0,7,2,13,0.00,4,Fog,285
2013-1-22,33,26,18,23,20,16,96,80,63,30.37,30.29,30.19,10,8,4,10,3,12,0.00,2,,290
2013-1-23,46,34,21,30,24,18,92,63,34,30.19,30.07,29.99,10,10,7,22,7,28,T,4,Rain,130
2013-1-24,46,37,27,34,31,26,92,79,65,30.28,30.22,30.14,10,9,5,7,2,8,0.01,4,Rain,149
2013-1-25,48,44,39,41,38,34,96,83,70,30.17,30.06,29.95,10,10,4,15,6,20,0.19,8,Rain,97
2013-1-26,43,39,35,39,37,34,100,91,82,30.00,29.94,29.90,10,5,0,9,2,12,0.10,8,Fog-Rain,307
2013-1-27,40,37,33,34,33,32,96,88,79,30.05,30.01,29.97,10,9,5,6,0,8,T,7,,324
2013-1-28,39,36,32,36,32,30,100,85,70,29.99,29.95,29.86,10,4,0,12,2,18,0.07,8,Fog-Rain-Snow,4
2013-1-29,46,41,35,36,33,30,92,73,53,30.22,30.11,29.87,10,10,7,14,6,17,0.32,8,Rain,275
2013-1-30,55,44,33,42,36,34,100,75,50,30.27,30.19,30.14,10,6,0,15,4,20,0.01,6,Fog-Rain,359
2013-1-31,50,45,39,42,39,35,92,84,76,30.32,30.27,30.23,10,10,9,9,2,10,0.01,7,Rain,54